Total_Precipitation_Accumulation
0.17 0.19 0.22 0.17 0.17 0.17 0.18 0.20 0.27 0.29 0.19 0.16 0.18 0.21 0.20 0.14 0.13 0.12 0.11 0.13 0.17 0.24 0.27 0.28 0.31 0.35 0.36 0.35 0.33 0.28 0.26 0.27 0.29 0.31 0.38 0.47 0.57 0.60 0.65 0.66 0.77 0.81 0.62
0.16 0.16 0.20 0.18 0.15 0.17 0.18 0.19 0.25 0.30 0.20 0.16 0.16 0.18 0.18 0.16 0.14 0.14 0.13 0.14 0.18 0.23 0.25 0.24 0.26 0.29 0.28 0.24 0.24 0.25 0.24 0.29 0.36 0.48 0.60 0.59 0.68 0.70 0.76 0.74 0.95 1.21 0.75
0.15 0.13 0.15 0.22 0.18 0.16 0.17 0.18 0.22 0.27 0.21 0.17 0.16 0.16 0.17 0.17 0.17 0.17 0.17 0.19 0.25 0.30 0.29 0.28 0.29 0.31 0.28 0.24 0.24 0.25 0.27 0.37 0.51 0.77 1.12 1.05 0.95 0.88 0.83 0.74 0.78 0.85 0.74
0.15 0.12 0.11 0.16 0.20 0.17 0.16 0.18 0.23 0.29 0.21 0.19 0.18 0.17 0.17 0.17 0.18 0.19 0.20 0.23 0.30 0.35 0.35 0.34 0.32 0.30 0.28 0.25 0.28 0.29 0.34 0.45 0.71 1.05 1.55 1.43 1.28 1.24 1.06 0.88 0.81 0.79 0.75
0.18 0.14 0.13 0.14 0.17 0.17 0.18 0.18 0.27 0.31 0.23 0.20 0.19 0.18 0.18 0.18 0.17 0.20 0.24 0.26 0.29 0.34 0.33 0.28 0.25 0.25 0.29 0.27 0.30 0.33 0.42 0.63 0.95 1.31 1.78 1.90 1.94 1.63 1.13 0.90 0.88 0.92 0.88
0.24 0.18 0.14 0.15 0.17 0.19 0.22 0.23 0.32 0.28 0.24 0.23 0.22 0.24 0.24 0.23 0.22 0.26 0.31 0.35 0.35 0.37 0.35 0.32 0.30 0.29 0.32 0.28 0.32 0.40 0.52 0.81 1.04 1.40 1.91 2.09 1.80 1.60 1.25 1.04 0.97 0.96 0.87
0.31 0.25 0.18 0.19 0.21 0.26 0.32 0.34 0.43 0.35 0.31 0.32 0.33 0.33 0.30 0.29 0.30 0.32 0.37 0.41 0.40 0.41 0.40 0.39 0.40 0.38 0.35 0.30 0.32 0.41 0.58 0.84 1.08 1.86 2.03 1.98 1.81 1.58 1.43 1.27 1.10 1.00 0.90
0.37 0.31 0.29 0.26 0.30 0.38 0.45 0.46 0.53 0.44 0.40 0.39 0.42 0.41 0.36 0.32 0.32 0.34 0.38 0.42 0.46 0.49 0.48 0.42 0.38 0.36 0.34 0.33 0.31 0.38 0.56 0.68 0.89 1.47 1.82 1.77 1.50 1.42 1.53 1.35 1.21 1.07 0.98
0.55 0.45 0.41 0.37 0.39 0.48 0.59 0.57 0.57 0.49 0.46 0.44 0.49 0.51 0.46 0.39 0.35 0.37 0.43 0.47 0.49 0.49 0.44 0.40 0.36 0.35 0.36 0.36 0.36 0.40 0.53 0.70 0.90 1.27 1.43 1.58 1.34 1.39 1.62 1.52 1.28 1.13 1.07
0.85 0.71 0.63 0.61 0.59 0.60 0.64 0.65 0.60 0.53 0.52 0.50 0.50 0.51 0.50 0.43 0.41 0.44 0.46 0.51 0.48 0.51 0.51 0.49 0.48 0.47 0.47 0.45 0.45 0.46 0.56 0.66 0.79 1.11 1.72 1.71 1.37 1.66 1.81 1.61 1.43 1.31 1.16
0.96 1.08 1.01 0.87 0.84 0.82 0.75 0.69 0.71 0.63 0.59 0.55 0.53 0.51 0.51 0.57 0.66 0.66 0.57 0.60 0.59 0.65 0.75 0.71 0.66 0.64 0.60 0.58 0.62 0.65 0.63 0.59 0.89 1.43 1.99 1.82 1.61 1.88 1.96 1.78 1.61 1.53 1.38
1.17 1.29 1.31 1.27 1.20 1.12 1.02 1.06 1.07 0.94 0.82 0.69 0.76 0.74 0.73 0.99 1.09 0.96 1.00 0.94 0.90 0.88 0.93 0.95 0.87 0.78 0.72 0.66 0.73 0.77 0.65 0.70 1.17 1.80 1.85 1.46 1.71 2.08 2.21 2.05 1.86 1.78 1.71
1.52 1.33 1.25 1.39 1.46 1.58 1.64 1.47 1.46 1.44 1.35 1.19 1.30 1.25 1.27 1.44 1.35 1.35 1.44 1.31 1.17 1.11 1.10 1.27 1.13 0.86 0.79 0.84 0.92 0.88 0.82 0.88 1.18 1.68 1.79 1.66 1.88 2.24 2.43 2.33 2.09 2.01 2.01
1.85 1.67 1.45 1.42 1.47 1.68 1.86 1.76 1.72 1.70 1.67 1.57 1.59 1.43 1.62 1.80 1.89 1.91 1.99 1.80 1.71 1.64 1.66 1.66 1.57 1.31 1.14 1.09 1.08 1.10 1.13 1.09 1.27 1.58 1.68 1.52 1.70 2.14 2.57 2.60 2.35 2.23 2.19
2.24 2.08 1.89 1.68 1.65 1.81 2.03 2.11 2.03 2.01 1.98 2.08 2.18 1.95 1.96 1.98 2.08 2.37 2.37 2.49 2.16 2.15 2.20 2.12 1.92 1.81 1.63 1.44 1.34 1.33 1.37 1.29 1.36 1.55 1.54 1.55 1.70 2.04 2.46 2.66 2.63 2.63 2.56
2.79 2.45 2.22 2.11 1.95 1.93 2.01 2.22 2.33 2.20 2.26 2.36 2.49 2.37 2.38 2.46 2.58 2.91 2.99 2.94 2.67 2.69 2.85 2.88 2.68 2.41 2.16 2.02 1.77 1.73 1.71 1.70 1.80 1.83 1.76 1.73 1.65 1.74 2.17 2.58 2.87 3.05 3.02
2.95 2.86 2.69 2.59 2.52 2.30 2.25 2.46 2.62 2.53 2.47 2.47 2.65 2.76 2.76 2.84 3.14 3.25 3.50 3.42 3.19 3.15 3.17 3.12 3.29 3.24 2.76 2.42 2.21 2.13 2.15 2.09 2.13 2.16 2.19 2.15 1.92 1.81 1.94 2.24 2.54 2.76 2.87
3.14 2.93 2.89 2.62 2.57 2.72 2.72 2.96 2.97 3.03 3.15 3.08 3.07 3.27 3.31 3.37 3.48 3.52 3.51 3.53 3.42 3.36 3.61 3.70 3.63 3.56 3.32 2.98 2.72 2.45 2.33 2.37 2.21 2.17 2.16 2.23 2.28 1.97 1.79 1.80 1.97 2.17 2.47
2.64 2.74 2.89 2.84 2.75 2.77 2.96 3.31 3.48 3.63 3.83 4.02 4.05 4.22 4.15 3.97 3.92 3.96 3.92 3.98 3.83 3.84 3.79 3.65 3.94 3.83 3.65 3.31 2.82 2.56 2.32 2.33 2.22 1.96 1.96 2.06 2.14 2.03 1.94 1.76 1.82 1.98 2.29
2.55 2.74 2.92 3.05 3.19 3.14 3.18 3.40 3.84 4.04 4.21 4.60 4.66 4.66 4.73 4.76 4.64 4.60 4.53 4.52 4.37 4.24 4.09 4.01 4.00 3.76 3.61 3.34 2.79 2.53 2.27 2.02 1.98 1.95 1.76 1.79 1.85 1.74 1.83 1.84 1.91 1.80 2.01
2.75 2.93 2.90 3.06 3.36 3.60 3.98 3.97 4.18 4.62 4.98 5.13 5.25 5.22 5.14 5.06 5.05 4.89 4.71 4.79 4.64 4.42 4.18 4.03 3.97 3.84 3.51 3.33 3.22 2.82 2.27 1.93 1.79 1.67 1.68 1.67 1.59 1.61 1.81 1.82 1.82 1.77 1.73
2.76 3.02 3.15 3.25 3.64 4.14 4.70 5.22 5.62 5.97 5.98 6.10 6.06 5.94 5.64 5.45 5.33 5.14 5.09 4.93 4.71 4.54 4.30 4.09 3.99 3.86 3.52 3.41 3.39 3.29 2.62 2.12 1.65 1.31 1.40 1.46 1.44 1.50 1.55 1.52 1.51 1.56 1.61
2.76 3.03 3.21 3.50 4.09 4.91 5.43 5.90 6.47 6.80 6.53 6.27 5.99 5.91 5.81 5.74 5.61 5.43 5.37 5.10 4.87 4.59 4.25 3.98 3.82 3.71 3.57 3.49 3.36 3.43 2.95 2.35 1.86 1.48 1.28 1.24 1.30 1.43 1.45 1.46 1.40 1.36 1.44
2.84 2.97 3.17 3.71 4.42 5.08 5.63 6.25 6.85 7.15 7.21 7.01 6.45 5.95 5.52 5.23 5.00 4.87 4.81 4.64 4.44 4.16 3.92 3.65 3.52 3.44 3.53 3.36 3.26 3.08 2.85 2.52 2.25 1.88 1.52 1.34 1.30 1.33 1.37 1.37 1.35 1.37 1.39
2.53 3.00 3.32 3.87 4.53 5.18 5.91 6.64 7.08 7.33 7.34 6.98 6.19 5.42 4.89 4.55 4.26 4.03 3.95 3.85 3.68 3.49 3.31 3.23 3.21 3.14 3.11 2.97 2.84 2.78 2.75 2.69 2.40 2.09 1.75 1.49 1.41 1.36 1.36 1.38 1.47 1.48 1.48
2.40 2.80 3.28 3.60 4.19 4.86 5.46 6.03 6.22 6.38 6.33 5.92 5.50 5.02 4.61 4.08 3.60 3.25 3.10 3.00 2.86 2.75 2.73 2.75 2.77 2.72 2.70 2.67 2.61 2.49 2.41 2.41 2.27 2.17 1.89 1.65 1.63 1.52 1.43 1.39 1.37 1.42 1.48